When you browse on this site, cookies collect data to enhance your experience and personalize the content and advertising you see.
Visit our Privacy Policy to learn more. By continuing to use the site, you agree to this use of cookies and data.
  • In Latvia
  • List of Countries
  • For 7 days
  • Water Temperature
  • Weather Map
  • Weather Widgets
  • user-avatar
    Login

    Hourly Weather Aleksandrovka

    Today, 25 August, Sunday

    Time Temperature Precipitation Wind Pressure Humidity
    00:00 +19°C° 0 mm 2 mps 756 mmHg 60%
    01:00 +18°C° 0 mm 2 mps 756 mmHg 60%
    02:00 +18°C° 0 mm 2 mps 756 mmHg 61%
    03:00 +18°C° 0 mm 1 mps 756 mmHg 62%
    04:00 +18°C° 0 mm 1 mps 756 mmHg 62%
    05:00 +18°C° 0 mm 1 mps 756 mmHg 63%
    06:00 +17°C° 0 mm 2 mps 756 mmHg 64%
    07:00 +19°C° 0 mm 2 mps 756 mmHg 59%
    08:00 +21°C° 0 mm 2 mps 756 mmHg 55%
    09:00 +24°C° 0 mm 3 mps 756 mmHg 49%
    10:00 +25°C° 0 mm 3 mps 756 mmHg 47%
    11:00 +26°C° 0 mm 4 mps 756 mmHg 44%
    12:00 +26°C° 0 mm 4 mps 756 mmHg 41%
    13:00 +26°C° 0 mm 4 mps 756 mmHg 43%
    14:00 +27°C° 0 mm 5 mps 756 mmHg 44%
    15:00 +27°C° 0 mm 5 mps 756 mmHg 45%
    16:00 +26°C° 0 mm 5 mps 756 mmHg 50%
    17:00 +25°C° 0 mm 5 mps 756 mmHg 54%
    18:00 +23°C° 0 mm 5 mps 756 mmHg 58%
    19:00 +21°C° 0 mm 5 mps 756 mmHg 61%
    20:00 +20°C° 0 mm 5 mps 757 mmHg 64%
    21:00 +17°C° 0 mm 5 mps 758 mmHg 67%
    22:00 +16°C° 0 mm 5 mps 758 mmHg 70%
    23:00 +15°C° 0 mm 5 mps 758 mmHg 73%

    Tomorrow, 26 August, Monday

    Time Temperature Precipitation Wind Pressure Humidity
    00:00 +14°C° 0 mm 5 mps 758 mmHg 76%
    01:00 +14°C° 0 mm 5 mps 759 mmHg 79%
    02:00 +13°C° 0 mm 4 mps 759 mmHg 82%
    03:00 +13°C° 0 mm 4 mps 760 mmHg 85%
    04:00 +12°C° 0 mm 4 mps 760 mmHg 86%
    05:00 +12°C° 0 mm 4 mps 760 mmHg 87%
    06:00 +12°C° 0 mm 3 mps 760 mmHg 88%
    07:00 +14°C° 0 mm 4 mps 760 mmHg 80%
    08:00 +15°C° 0 mm 4 mps 760 mmHg 71%
    09:00 +18°C° 0 mm 4 mps 761 mmHg 63%
    10:00 +19°C° 0 mm 4 mps 761 mmHg 57%
    11:00 +20°C° 0 mm 3 mps 760 mmHg 52%
    12:00 +21°C° 0 mm 3 mps 760 mmHg 46%
    13:00 +22°C° 0 mm 3 mps 760 mmHg 43%
    14:00 +22°C° 0 mm 3 mps 760 mmHg 41%
    15:00 +24°C° 0 mm 3 mps 760 mmHg 39%
    16:00 +23°C° 0 mm 2 mps 759 mmHg 43%
    17:00 +23°C° 0 mm 2 mps 759 mmHg 46%
    18:00 +21°C° 0 mm 2 mps 759 mmHg 49%
    19:00 +19°C° 0 mm 2 mps 759 mmHg 52%
    20:00 +18°C° 0 mm 2 mps 759 mmHg 55%
    21:00 +17°C° 0 mm 2 mps 759 mmHg 57%
    22:00 +16°C° 0 mm 1 mps 759 mmHg 58%
    23:00 +16°C° 0 mm 1 mps 759 mmHg 59%

    Day after tomorrow, 27 August, Tuesday

    Time Temperature Precipitation Wind Pressure Humidity
    00:00 +14°C° 0 mm 0 mps 758 mmHg 60%
    01:00 +14°C° 0 mm 0 mps 758 mmHg 61%
    02:00 +15°C° 0 mm 1 mps 758 mmHg 62%
    03:00 +14°C° 0 mm 1 mps 758 mmHg 63%
    04:00 +14°C° 0 mm 1 mps 757 mmHg 63%
    05:00 +15°C° 0 mm 2 mps 757 mmHg 63%
    06:00 +15°C° 0 mm 2 mps 756 mmHg 63%
    07:00 +16°C° 0 mm 3 mps 756 mmHg 59%
    08:00 +18°C° 0 mm 4 mps 756 mmHg 55%
    09:00 +20°C° 0 mm 4 mps 756 mmHg 50%
    10:00 +20°C° 0 mm 5 mps 755 mmHg 50%
    11:00 +21°C° 0 mm 5 mps 754 mmHg 49%
    12:00 +21°C° 0 mm 5 mps 754 mmHg 49%
    13:00 +22°C° 0 mm 5 mps 753 mmHg 49%
    14:00 +22°C° 0 mm 6 mps 753 mmHg 49%
    15:00 +22°C° 0 mm 6 mps 752 mmHg 49%
    16:00 +22°C° 0.1 mm 5 mps 752 mmHg 53%
    17:00 +21°C° 0.1 mm 5 mps 751 mmHg 58%
    18:00 +21°C° 0.1 mm 5 mps 750 mmHg 62%
    19:00 +20°C° 0.3 mm 5 mps 750 mmHg 69%
    20:00 +17°C° 0.3 mm 6 mps 750 mmHg 76%
    21:00 +16°C° 0.3 mm 6 mps 749 mmHg 82%
    22:00 +16°C° 0 mm 6 mps 749 mmHg 83%
    23:00 +15°C° 0 mm 6 mps 749 mmHg 83%

    28 August, Wednesday

    Time Temperature Precipitation Wind Pressure Humidity
    00:00 +15°C° 0 mm 5 mps 749 mmHg 84%
    01:00 +14°C° 0 mm 5 mps 749 mmHg 84%
    02:00 +14°C° 0 mm 5 mps 749 mmHg 85%
    03:00 +13°C° 0 mm 5 mps 749 mmHg 85%
    04:00 +13°C° 0 mm 6 mps 749 mmHg 84%
    05:00 +11°C° 0 mm 7 mps 749 mmHg 83%
    06:00 +11°C° 0 mm 7 mps 749 mmHg 82%
    07:00 +11°C° 0 mm 8 mps 749 mmHg 75%
    08:00 +11°C° 0 mm 9 mps 750 mmHg 67%
    09:00 +11°C° 0 mm 10 mps 750 mmHg 60%
    10:00 +11°C° 0 mm 10 mps 750 mmHg 58%
    11:00 +11°C° 0 mm 10 mps 751 mmHg 55%
    12:00 +11°C° 0 mm 10 mps 751 mmHg 53%
    13:00 +12°C° 0 mm 9 mps 751 mmHg 52%
    14:00 +13°C° 0 mm 9 mps 751 mmHg 51%
    15:00 +13°C° 0 mm 8 mps 751 mmHg 50%
    16:00 +13°C° 0 mm 8 mps 752 mmHg 54%
    17:00 +12°C° 0 mm 9 mps 752 mmHg 58%
    18:00 +12°C° 0 mm 9 mps 752 mmHg 63%
    19:00 +11°C° 0 mm 9 mps 752 mmHg 65%
    20:00 +11°C° 0 mm 8 mps 752 mmHg 67%
    21:00 +11°C° 0 mm 8 mps 753 mmHg 70%
    22:00 +11°C° 0 mm 8 mps 753 mmHg 68%
    23:00 +11°C° 0 mm 8 mps 753 mmHg 67%

    29 August, Thursday

    Time Temperature Precipitation Wind Pressure Humidity
    00:00 +11°C° 0 mm 9 mps 753 mmHg 66%
    01:00 +10°C° 0 mm 8 mps 753 mmHg 69%
    02:00 +9°C° 0 mm 8 mps 753 mmHg 71%
    03:00 +7°C° 0 mm 8 mps 753 mmHg 74%
    04:00 +7°C° 0 mm 8 mps 753 mmHg 75%
    05:00 +7°C° 0 mm 8 mps 754 mmHg 76%
    06:00 +6°C° 0 mm 8 mps 754 mmHg 76%
    07:00 +7°C° 0 mm 8 mps 754 mmHg 72%
    08:00 +9°C° 0 mm 8 mps 755 mmHg 68%
    09:00 +10°C° 0 mm 8 mps 755 mmHg 64%
    10:00 +11°C° 0 mm 8 mps 755 mmHg 61%
    11:00 +11°C° 0 mm 8 mps 755 mmHg 59%
    12:00 +12°C° 0 mm 7 mps 755 mmHg 56%
    13:00 +14°C° 0 mm 7 mps 755 mmHg 52%
    14:00 +15°C° 0 mm 8 mps 755 mmHg 48%
    15:00 +16°C° 0 mm 8 mps 755 mmHg 44%
    16:00 +15°C° 0 mm 7 mps 755 mmHg 46%
    17:00 +15°C° 0 mm 6 mps 755 mmHg 48%
    18:00 +14°C° 0 mm 6 mps 755 mmHg 50%
    19:00 +13°C° 0 mm 6 mps 756 mmHg 54%
    20:00 +10°C° 0 mm 5 mps 756 mmHg 59%
    21:00 +9°C° 0 mm 5 mps 756 mmHg 64%
    22:00 +8°C° 0 mm 5 mps 756 mmHg 67%
    23:00 +8°C° 0 mm 4 mps 756 mmHg 70%

    30 August, Friday

    Time Temperature Precipitation Wind Pressure Humidity
    00:00 +7°C° 0 mm 4 mps 756 mmHg 73%
    01:00 +7°C° 0 mm 4 mps 756 mmHg 75%
    02:00 +6°C° 0 mm 4 mps 756 mmHg 77%
    03:00 +6°C° 0 mm 4 mps 756 mmHg 79%
    04:00 +6°C° 0 mm 4 mps 757 mmHg 78%
    05:00 +6°C° 0 mm 4 mps 757 mmHg 78%
    06:00 +6°C° 0 mm 4 mps 757 mmHg 77%
    07:00 +7°C° 0 mm 5 mps 757 mmHg 69%
    08:00 +9°C° 0 mm 5 mps 757 mmHg 61%
    09:00 +12°C° 0 mm 5 mps 757 mmHg 53%
    10:00 +13°C° 0 mm 5 mps 757 mmHg 49%
    11:00 +14°C° 0 mm 5 mps 757 mmHg 46%
    12:00 +15°C° 0 mm 5 mps 757 mmHg 43%
    13:00 +15°C° 0 mm 5 mps 757 mmHg 43%
    14:00 +15°C° 0 mm 5 mps 756 mmHg 43%
    15:00 +15°C° 0 mm 5 mps 756 mmHg 43%
    16:00 +15°C° 0 mm 5 mps 756 mmHg 47%
    17:00 +14°C° 0 mm 5 mps 757 mmHg 51%
    18:00 +13°C° 0 mm 5 mps 757 mmHg 55%
    19:00 +12°C° 0.2 mm 5 mps 757 mmHg 65%
    20:00 +9°C° 0.2 mm 5 mps 758 mmHg 74%
    21:00 +8°C° 0.2 mm 5 mps 758 mmHg 84%
    22:00 +8°C° 0.1 mm 5 mps 758 mmHg 83%
    23:00 +8°C° 0.1 mm 5 mps 758 mmHg 83%
    Show more